Volver al catálogo

STARLINK-36115

ActivoComunicacionesVLEO
NORAD 66946·PAYLOAD·🇺🇸 United States

Lanzado Dec 7, 2025 desde Vandenberg Space Force Base

Loading…

Próximos Pases (próximas 24 horas)

TLE

ActualizadoSource: CelesTrak SupGP

Época: Sep 15, 2026, 03:58 UTC

1 66946C 25286X   26258.16576389 -.00037292  00000+0 -11020-2 0  2580
2 66946  53.1574 194.6610 0001306  86.0155  88.6588 15.34403964    13

Sigue STARLINK-36115 en tiempo real con AllMySat

Download on the App Store